CYAS

Kangirsuk Airport

ICAO Code CYAS
IATA Code YKG
Name Kangirsuk Airport
Location Kangirsuk, Quebec, CA
Elevation 406 Feet / 123.7 Meters
Latitude 60.02722222
Longitude -69.99916667
METAR CYAS 011900Z 03007KT 15SM -RA BKN012 OVC044 09/06 A2961 RMK ST6SC2 LAST STFD OBS NEXT 021200UTC SLP033
Extra information Display Charts and CFS
Display NOTAMS
Runway Length Width Surface Elevation
03 3521 ft 100 ft GRAVEL 342 ft
21 3521 ft 100 ft GRAVEL 406 ft